TimeCDT,TemperatureF,Dew PointF,Humidity,Sea Level PressureIn,VisibilityMPH,Wind Direction,Wind SpeedMPH,Gust SpeedMPH,PrecipitationIn,Events,Conditions,WindDirDegrees,DateUTC
12:15 AM,50.4,28.9,44,29.98,10.0,SW,3.5,-,N/A,,Clear,220,2013-10-20 05:15:00
12:35 AM,49.6,30.2,47,29.98,10.0,SW,8.1,-,N/A,,Clear,220,2013-10-20 05:35:00
12:55 AM,50.0,30.0,46,29.97,10.0,SW,9.2,-,N/A,,Clear,220,2013-10-20 05:55:00
1:15 AM,48.6,30.2,49,29.97,10.0,SW,9.2,-,N/A,,Clear,220,2013-10-20 06:15:00
1:35 AM,48.2,30.2,50,29.96,10.0,SW,6.9,-,N/A,,Clear,220,2013-10-20 06:35:00
1:55 AM,48.0,30.2,50,29.95,10.0,SW,5.8,-,N/A,,Clear,230,2013-10-20 06:55:00
2:15 AM,48.6,30.6,50,29.95,10.0,SW,10.4,-,N/A,,Clear,220,2013-10-20 07:15:00
2:35 AM,48.2,30.7,51,29.94,10.0,SSW,9.2,-,N/A,,Clear,210,2013-10-20 07:35:00
2:55 AM,48.7,30.2,49,29.94,10.0,SW,10.4,-,N/A,,Clear,220,2013-10-20 07:55:00
3:15 AM,48.4,30.7,51,29.93,10.0,SW,10.4,-,N/A,,Clear,220,2013-10-20 08:15:00
3:35 AM,48.2,30.9,51,29.92,10.0,SW,9.2,-,N/A,,Clear,230,2013-10-20 08:35:00
3:55 AM,45.7,31.1,57,29.92,10.0,West,3.5,-,N/A,,Clear,260,2013-10-20 08:55:00
4:15 AM,46.2,31.1,56,29.91,10.0,WSW,4.6,-,N/A,,Clear,250,2013-10-20 09:15:00
4:35 AM,46.6,31.5,56,29.91,10.0,SW,5.8,-,N/A,,Clear,230,2013-10-20 09:35:00
4:55 AM,45.1,31.6,59,29.90,10.0,WSW,3.5,-,N/A,,Clear,250,2013-10-20 09:55:00
5:15 AM,43.9,31.6,62,29.90,10.0,Calm,Calm,-,N/A,,Clear,0,2013-10-20 10:15:00
5:35 AM,40.6,32.0,71,29.90,10.0,Calm,Calm,-,N/A,,Clear,0,2013-10-20 10:35:00
5:55 AM,42.8,32.0,66,29.90,10.0,Calm,Calm,-,N/A,,Clear,0,2013-10-20 10:55:00
6:15 AM,43.0,32.0,65,29.89,10.0,Calm,Calm,-,N/A,,Clear,0,2013-10-20 11:15:00
6:35 AM,43.2,32.0,65,29.88,10.0,Calm,Calm,-,N/A,,Clear,0,2013-10-20 11:35:00
6:55 AM,41.9,32.4,69,29.88,10.0,Calm,Calm,-,N/A,,Clear,0,2013-10-20 11:55:00
7:15 AM,41.2,32.5,71,29.88,10.0,Calm,Calm,-,N/A,,Clear,0,2013-10-20 12:15:00
7:35 AM,41.5,32.9,71,29.88,10.0,Calm,Calm,-,N/A,,Clear,0,2013-10-20 12:35:00
7:55 AM,41.0,33.1,73,29.88,10.0,Calm,Calm,-,N/A,,Clear,0,2013-10-20 12:55:00
8:15 AM,39.6,32.9,77,29.88,10.0,Calm,Calm,-,N/A,,Clear,0,2013-10-20 13:15:00
8:35 AM,38.8,33.4,81,29.88,10.0,Calm,Calm,-,N/A,,Clear,0,2013-10-20 13:35:00
8:55 AM,41.7,36.0,80,29.88,10.0,SSW,3.5,-,N/A,,Clear,200,2013-10-20 13:55:00
9:15 AM,45.1,37.0,73,29.88,10.0,Calm,Calm,-,N/A,,Clear,0,2013-10-20 14:15:00
9:35 AM,49.3,38.1,65,29.88,10.0,SW,4.6,-,N/A,,Clear,230,2013-10-20 14:35:00
9:55 AM,52.0,37.8,58,29.88,10.0,SW,6.9,-,N/A,,Clear,230,2013-10-20 14:55:00
10:15 AM,53.8,37.9,55,29.87,10.0,SW,6.9,-,N/A,,Clear,230,2013-10-20 15:15:00
10:35 AM,54.9,37.2,51,29.88,10.0,SW,6.9,-,N/A,,Clear,230,2013-10-20 15:35:00
10:55 AM,56.3,37.0,48,29.87,10.0,SW,3.5,-,N/A,,Clear,230,2013-10-20 15:55:00
11:15 AM,57.6,36.9,46,29.86,10.0,WSW,6.9,-,N/A,,Clear,240,2013-10-20 16:15:00
11:35 AM,59.2,37.0,44,29.85,10.0,SSW,4.6,-,N/A,,Clear,210,2013-10-20 16:35:00
11:55 AM,60.3,36.1,41,29.84,10.0,SW,3.5,-,N/A,,Clear,230,2013-10-20 16:55:00
12:15 PM,62.6,35.8,37,29.84,10.0,SSE,4.6,-,N/A,,Clear,160,2013-10-20 17:15:00
12:35 PM,64.8,36.9,36,29.83,10.0,SSE,4.6,-,N/A,,Clear,160,2013-10-20 17:35:00
12:55 PM,66.0,37.4,35,29.83,10.0,South,4.6,-,N/A,,Clear,190,2013-10-20 17:55:00
1:15 PM,67.1,37.0,33,29.82,10.0,SSW,8.1,-,N/A,,Clear,210,2013-10-20 18:15:00
1:35 PM,68.0,37.2,32,29.81,10.0,South,6.9,-,N/A,,Clear,170,2013-10-20 18:35:00
1:55 PM,69.6,37.0,30,29.81,10.0,SSW,4.6,-,N/A,,Clear,210,2013-10-20 18:55:00
2:15 PM,69.8,37.0,30,29.80,10.0,West,3.5,-,N/A,,Clear,280,2013-10-20 19:15:00
2:35 PM,70.0,36.0,29,29.79,10.0,South,4.6,-,N/A,,Clear,170,2013-10-20 19:35:00
2:55 PM,71.1,36.7,28,29.78,10.0,SSW,8.1,-,N/A,,Clear,200,2013-10-20 19:55:00
3:15 PM,72.5,37.0,27,29.77,10.0,SSW,6.9,-,N/A,,Clear,200,2013-10-20 20:15:00
3:35 PM,72.0,36.0,27,29.77,10.0,West,3.5,-,N/A,,Clear,260,2013-10-20 20:35:00
3:55 PM,72.9,35.8,26,29.77,10.0,SSW,4.6,-,N/A,,Clear,200,2013-10-20 20:55:00
4:15 PM,73.4,36.0,26,29.77,10.0,Calm,Calm,-,N/A,,Clear,0,2013-10-20 21:15:00
4:35 PM,73.6,36.3,26,29.77,10.0,Calm,Calm,-,N/A,,Clear,0,2013-10-20 21:35:00
4:55 PM,73.6,36.1,26,29.77,10.0,Calm,Calm,-,N/A,,Clear,0,2013-10-20 21:55:00
5:15 PM,73.6,35.8,25,29.78,10.0,Calm,Calm,-,N/A,,Clear,0,2013-10-20 22:15:00
5:35 PM,73.4,36.3,26,29.79,10.0,North,4.6,-,N/A,,Clear,360,2013-10-20 22:35:00
5:55 PM,72.9,33.4,24,29.79,10.0,NNW,6.9,-,N/A,,Clear,330,2013-10-20 22:55:00
6:15 PM,71.4,36.0,27,29.80,10.0,North,6.9,-,N/A,,Clear,360,2013-10-20 23:15:00
6:35 PM,69.6,37.0,30,29.81,10.0,North,9.2,-,N/A,,Clear,360,2013-10-20 23:35:00
6:55 PM,66.9,38.3,35,29.83,10.0,North,9.2,-,N/A,,Clear,10,2013-10-20 23:55:00
7:15 PM,64.4,39.2,40,29.84,10.0,NNE,10.4,-,N/A,,Clear,20,2013-10-21 00:15:00
7:35 PM,62.2,39.9,44,29.86,10.0,NNE,8.1,-,N/A,,Clear,20,2013-10-21 00:35:00
7:55 PM,60.8,40.6,47,29.88,10.0,North,8.1,-,N/A,,Clear,10,2013-10-21 00:55:00
8:15 PM,60.1,40.5,48,29.88,10.0,NNE,9.2,-,N/A,,Clear,20,2013-10-21 01:15:00
8:35 PM,59.9,39.4,47,29.89,10.0,NNE,9.2,-,N/A,,Clear,30,2013-10-21 01:35:00
8:55 PM,59.2,39.6,48,29.91,10.0,NNE,11.5,18.4,N/A,,Clear,20,2013-10-21 01:55:00
9:15 PM,58.1,39.9,51,29.93,10.0,NNE,11.5,18.4,N/A,,Clear,30,2013-10-21 02:15:00
9:35 PM,57.4,39.6,51,29.94,10.0,NNE,13.8,18.4,N/A,,Clear,30,2013-10-21 02:35:00
9:55 PM,57.4,39.6,51,29.95,10.0,NNE,10.4,-,N/A,,Clear,30,2013-10-21 02:55:00
10:15 PM,56.3,39.2,53,29.95,10.0,NNE,10.4,19.6,N/A,,Clear,30,2013-10-21 03:15:00
10:35 PM,56.3,39.2,53,29.95,10.0,NNE,12.7,-,N/A,,Clear,20,2013-10-21 03:35:00
10:55 PM,55.8,39.6,55,29.96,10.0,NNE,15.0,-,N/A,,Clear,20,2013-10-21 03:55:00
11:15 PM,54.9,40.5,58,29.97,10.0,NNE,11.5,-,N/A,,Clear,30,2013-10-21 04:15:00
11:35 PM,54.9,41.2,60,29.97,10.0,NNE,11.5,18.4,N/A,,Clear,20,2013-10-21 04:35:00
11:55 PM,53.8,41.2,62,29.98,10.0,NNE,10.4,17.3,N/A,,Clear,20,2013-10-21 04:55:00